Location: Unspecified
(43.3830°N, 0.0000°E)
Time: 03:32:06
(UTC+00:00)

Vanguard 1 - All Passes

Search period start: 16 June 2019 00:00
Search period end: 26 June 2019 00:00
Orbit: 654 x 3830 km, 34.2° (Epoch: 14 June)

Date Brightness Start Highest point End Pass type
(mag) Time Alt. Az. Time Alt. Az. Time Alt. Az.
16 Jun - 01:28:50 10° S 01:37:19 16° SSE 01:43:55 10° ESE visible
16 Jun - 03:47:26 10° SW 03:59:32 33° SSE 04:06:51 10° ESE visible
16 Jun - 06:11:00 10° WSW 06:20:30 42° S 06:26:09 10° ESE daylight
16 Jun - 08:34:42 10° WSW 08:40:09 26° SSW 08:44:11 10° SE daylight
17 Jun - 01:46:57 10° SSW 01:58:29 21° SSE 02:06:38 10° ESE visible
17 Jun - 04:07:59 10° SW 04:20:37 38° SSE 04:27:57 10° ESE daylight
17 Jun - 06:32:13 10° WSW 06:41:25 42° S 06:46:55 10° ESE daylight
17 Jun - 08:56:10 10° WSW 09:00:47 21° SSW 09:04:24 10° SSE daylight
18 Jun - 02:06:09 10° SSW 02:19:39 27° SSE 02:28:31 10° ESE visible
18 Jun - 04:28:50 10° SW 04:41:40 43° S 04:48:56 10° ESE daylight
18 Jun - 06:53:30 10° WSW 07:02:17 40° SSW 07:07:37 10° ESE daylight
18 Jun - 09:17:59 10° WSW 09:21:21 15° SSW 09:24:11 10° S daylight
19 Jun - 00:09:15 10° S 00:17:55 14° SE 00:25:04 10° ESE visible
19 Jun - 02:26:01 10° SSW 02:40:48 33° SSE 02:49:58 10° E visible
19 Jun - 04:49:55 10° WSW 05:02:42 47° S 05:09:50 10° ESE daylight
19 Jun - 07:14:51 10° W 07:23:04 36° SSW 07:28:13 10° SE daylight
20 Jun - 00:26:26 10° S 00:39:04 20° SSE 00:48:33 10° ESE visible
20 Jun - 02:46:20 10° SW 03:01:57 39° SSE 03:11:12 10° E visible
20 Jun - 05:11:09 10° WSW 05:23:42 49° S 05:30:39 10° ESE daylight
20 Jun - 07:36:17 10° W 07:43:46 31° SSW 07:48:40 10° SE daylight
21 Jun - 00:45:04 10° SSW 01:00:12 26° SSE 01:10:49 10° E visible
21 Jun - 03:07:01 10° SW 03:23:05 45° SSE 03:32:16 10° E visible
21 Jun - 05:32:30 10° WSW 05:44:40 49° S 05:51:25 10° ESE daylight
21 Jun - 07:57:50 10° W 08:04:23 25° SSW 08:08:54 10° SSE daylight
21 Jun - 22:51:24 10° SSE 22:58:05 12° SE 23:04:06 10° ESE visible
22 Jun - 01:04:31 10° SSW 01:21:21 33° SSE 01:32:33 10° E visible
22 Jun - 03:27:59 10° WSW 03:44:12 50° S 03:53:15 10° E visible
22 Jun - 05:53:55 10° W 06:05:34 46° SSW 06:12:07 10° ESE daylight
22 Jun - 08:19:38 10° WSW 08:24:52 19° SW 08:28:47 10° S daylight
22 Jun - 23:06:48 10° S 23:19:08 18° SE 23:29:16 10° ESE visible
23 Jun - 01:24:31 10° SW 01:42:31 39° SSE 01:53:57 10° E visible
23 Jun - 03:49:10 10° WSW 04:05:18 53° S 04:14:09 10° ESE visible
23 Jun - 06:15:24 10° W 06:26:23 42° SSW 06:32:43 10° SE daylight
23 Jun - 08:42:06 10° WSW 08:45:16 13° SW 08:47:56 10° SSW daylight
23 Jun - 23:24:38 10° S 23:40:10 24° SE 23:52:13 10° E visible
24 Jun - 01:44:56 10° SW 02:03:42 45° SSE 02:15:09 10° E visible
24 Jun - 04:10:31 10° WSW 04:26:22 55° S 04:34:59 10° ESE daylight
24 Jun - 06:36:56 10° W 06:47:06 36° SSW 06:53:10 10° SE daylight
24 Jun - 23:43:32 10° SSW 00:01:15 30° SSE 00:14:20 10° E visible
25 Jun - 02:05:42 10° SW 02:24:53 50° SSE 02:36:13 10° E visible
25 Jun - 04:31:59 10° WSW 04:47:24 54° S 04:55:46 10° ESE daylight
25 Jun - 06:58:35 10° W 07:07:42 30° SSW 07:13:26 10° SSE daylight
25 Jun - 21:48:54 10° SSE 21:58:54 15° SE 22:07:59 10° ESE visible
